Time,TemperatureF,DewpointF,PressureIn,WindDirection,WindDirectionDegrees,WindSpeedMPH,WindSpeedGustMPH,Humidity,HourlyPrecipIn,Conditions,Clouds,dailyrainin,SoftwareType,DateUTC
2013-02-22 00:03:00,71.1,67.0,29.91,ESE,112,2.7,-999.0,87,-99.99,,,0.00,Acu-Link.com,2013-02-22 05:03:00,
2013-02-22 00:19:00,71.1,67.4,29.91,ESE,112,2.7,-999.0,88,-99.99,,,0.00,Acu-Link.com,2013-02-22 05:19:00,
2013-02-22 00:34:00,70.9,67.5,29.91,ESE,112,4.2,-999.0,89,-99.99,,,0.00,Acu-Link.com,2013-02-22 05:34:00,
2013-02-22 00:49:00,70.9,67.2,29.90,ESE,112,4.2,-999.0,88,-99.99,,,0.00,Acu-Link.com,2013-02-22 05:49:00,
2013-02-22 01:04:00,70.9,67.2,29.90,ESE,112,2.7,-999.0,88,-99.99,,,0.00,Acu-Link.com,2013-02-22 06:04:00,
2013-02-22 01:19:00,70.7,67.0,29.90,ESE,112,3.7,-999.0,88,-99.99,,,0.00,Acu-Link.com,2013-02-22 06:19:00,
2013-02-22 01:34:00,70.7,67.0,29.89,ESE,112,4.7,-999.0,88,-99.99,,,0.00,Acu-Link.com,2013-02-22 06:34:00,
2013-02-22 01:49:00,70.7,66.6,29.90,ESE,112,2.7,-999.0,87,-99.99,,,0.00,Acu-Link.com,2013-02-22 06:49:00,
2013-02-22 02:04:00,70.5,66.4,29.89,ESE,112,2.7,-999.0,87,-99.99,,,0.00,Acu-Link.com,2013-02-22 07:04:00,
2013-02-22 02:19:00,70.5,66.4,29.89,ESE,112,3.7,-999.0,87,-99.99,,,0.00,Acu-Link.com,2013-02-22 07:19:00,
2013-02-22 02:35:00,70.3,66.9,29.88,SE,135,3.2,-999.0,89,-99.99,,,0.00,Acu-Link.com,2013-02-22 07:35:00,
2013-02-22 02:50:00,70.2,67.1,29.88,ESE,112,3.2,-999.0,90,-99.99,,,0.00,Acu-Link.com,2013-02-22 07:50:00,
2013-02-22 03:05:00,70.0,67.2,29.87,ESE,112,3.2,-999.0,91,-99.99,,,0.00,Acu-Link.com,2013-02-22 08:05:00,
2013-02-22 03:20:00,70.0,67.6,29.87,ESE,112,5.8,-999.0,92,-99.99,,,0.00,Acu-Link.com,2013-02-22 08:20:00,
2013-02-22 03:35:00,70.5,68.1,29.88,ESE,112,2.7,-999.0,92,-99.99,,,0.00,Acu-Link.com,2013-02-22 08:35:00,
2013-02-22 03:51:00,70.7,68.3,29.87,ESE,112,2.7,-999.0,92,-99.99,,,0.00,Acu-Link.com,2013-02-22 08:51:00,
2013-02-22 04:19:00,71.1,68.7,29.87,ESE,112,5.8,-999.0,92,-99.99,,,0.00,Acu-Link.com,2013-02-22 09:19:00,
2013-02-22 04:34:00,71.6,69.1,29.88,ESE,112,4.7,-999.0,92,-99.99,,,0.00,Acu-Link.com,2013-02-22 09:34:00,
2013-02-22 04:49:00,71.4,68.9,29.89,SSE,157,4.7,-999.0,92,-99.99,,,0.00,Acu-Link.com,2013-02-22 09:49:00,
2013-02-22 05:05:00,71.4,68.9,29.88,SE,135,3.7,-999.0,92,-99.99,,,0.00,Acu-Link.com,2013-02-22 10:05:00,
2013-02-22 05:20:00,71.4,68.9,29.89,SE,135,3.7,-999.0,92,-99.99,,,0.00,Acu-Link.com,2013-02-22 10:20:00,
2013-02-22 05:35:00,71.4,68.9,29.89,ESE,112,5.3,-999.0,92,-99.99,,,0.00,Acu-Link.com,2013-02-22 10:35:00,
2013-02-22 05:50:00,71.6,69.1,29.89,ESE,112,3.7,-999.0,92,-99.99,,,0.00,Acu-Link.com,2013-02-22 10:50:00,
2013-02-22 06:05:00,71.6,69.1,29.90,ESE,112,6.3,-999.0,92,-99.99,,,0.00,Acu-Link.com,2013-02-22 11:05:00,
2013-02-22 06:20:00,71.6,69.1,29.90,ESE,112,5.3,-999.0,92,-99.99,,,0.00,Acu-Link.com,2013-02-22 11:20:00,
2013-02-22 06:35:00,71.6,69.5,29.91,ESE,112,3.7,-999.0,93,-99.99,,,0.00,Acu-Link.com,2013-02-22 11:35:00,
2013-02-22 06:50:00,71.8,69.7,29.92,SE,135,4.7,-999.0,93,-99.99,,,0.00,Acu-Link.com,2013-02-22 11:50:00,
2013-02-22 07:06:00,72.0,69.9,29.93,SE,135,0.0,-999.0,93,-99.99,,,0.00,Acu-Link.com,2013-02-22 12:06:00,
2013-02-22 07:21:00,72.5,70.4,29.93,SE,135,2.7,-999.0,93,-99.99,,,0.00,Acu-Link.com,2013-02-22 12:21:00,
2013-02-22 07:36:00,73.4,70.6,29.93,ESE,112,3.2,-999.0,91,-99.99,,,0.00,Acu-Link.com,2013-02-22 12:36:00,
2013-02-22 07:51:00,75.6,71.4,29.93,ESE,112,2.2,-999.0,87,-99.99,,,0.00,Acu-Link.com,2013-02-22 12:51:00,
2013-02-22 08:06:00,75.9,71.1,29.93,ESE,112,6.8,-999.0,85,-99.99,,,0.00,Acu-Link.com,2013-02-22 13:06:00,
2013-02-22 08:21:00,75.7,71.2,29.94,ESE,112,10.9,-999.0,86,-99.99,,,0.00,Acu-Link.com,2013-02-22 13:21:00,
2013-02-22 08:36:00,77.5,71.6,29.93,SSE,157,5.8,-999.0,82,-99.99,,,0.00,Acu-Link.com,2013-02-22 13:36:00,
2013-02-22 08:51:00,77.7,71.4,29.94,East,90,9.4,-999.0,81,-99.99,,,0.00,Acu-Link.com,2013-02-22 13:51:00,
2013-02-22 09:06:00,78.3,71.2,29.94,East,90,4.2,-999.0,79,-99.99,,,0.00,Acu-Link.com,2013-02-22 14:06:00,
2013-02-22 09:22:00,78.8,71.7,29.95,SE,135,4.7,-999.0,79,-99.99,,,0.00,Acu-Link.com,2013-02-22 14:22:00,
2013-02-22 09:37:00,78.6,70.4,29.96,SSE,157,7.8,-999.0,76,-99.99,,,0.00,Acu-Link.com,2013-02-22 14:37:00,
2013-02-22 09:52:00,79.2,71.3,29.95,ESE,112,4.2,-999.0,77,-99.99,,,0.00,Acu-Link.com,2013-02-22 14:52:00,
2013-02-22 10:07:00,79.2,70.6,29.95,SE,135,9.9,-999.0,75,-99.99,,,0.00,Acu-Link.com,2013-02-22 15:07:00,
2013-02-22 10:22:00,80.2,70.7,29.95,SSE,157,11.4,-999.0,73,-99.99,,,0.00,Acu-Link.com,2013-02-22 15:22:00,
2013-02-22 10:37:00,79.7,71.1,29.94,SSE,157,6.8,-999.0,75,-99.99,,,0.00,Acu-Link.com,2013-02-22 15:37:00,
2013-02-22 10:52:00,80.1,71.4,29.95,SSE,157,9.9,-999.0,75,-99.99,,,0.00,Acu-Link.com,2013-02-22 15:52:00,
2013-02-22 11:07:00,79.2,71.0,29.95,SSE,157,15.5,-999.0,76,-99.99,,,0.00,Acu-Link.com,2013-02-22 16:07:00,
2013-02-22 11:23:00,79.7,71.1,29.95,SE,135,14.0,-999.0,75,-99.99,,,0.00,Acu-Link.com,2013-02-22 16:23:00,
2013-02-22 11:38:00,79.5,70.9,29.95,ESE,112,5.8,-999.0,75,-99.99,,,0.00,Acu-Link.com,2013-02-22 16:38:00,
2013-02-22 11:53:00,80.8,70.9,29.95,SE,135,4.2,-999.0,72,-99.99,,,0.00,Acu-Link.com,2013-02-22 16:53:00,
2013-02-22 12:08:00,81.5,71.6,29.93,SSE,157,7.3,-999.0,72,-99.99,,,0.00,Acu-Link.com,2013-02-22 17:08:00,
2013-02-22 12:23:00,80.2,70.7,29.93,ESE,112,8.9,-999.0,73,-99.99,,,0.00,Acu-Link.com,2013-02-22 17:23:00,
2013-02-22 12:38:00,80.8,70.5,29.92,SE,135,13.5,-999.0,71,-99.99,,,0.00,Acu-Link.com,2013-02-22 17:38:00,
2013-02-22 12:53:00,80.8,70.5,29.91,SSE,157,7.3,-999.0,71,-99.99,,,0.00,Acu-Link.com,2013-02-22 17:53:00,
2013-02-22 13:08:00,81.1,70.8,29.92,SE,135,8.3,-999.0,71,-99.99,,,0.00,Acu-Link.com,2013-02-22 18:08:00,
2013-02-22 13:23:00,82.2,70.6,29.90,South,180,10.4,-999.0,68,-99.99,,,0.00,Acu-Link.com,2013-02-22 18:23:00,
2013-02-22 13:39:00,81.3,70.6,29.90,WSW,247,11.4,-999.0,70,-99.99,,,0.00,Acu-Link.com,2013-02-22 18:39:00,
2013-02-22 13:54:00,81.1,70.4,29.89,SSW,202,13.5,-999.0,70,-99.99,,,0.00,Acu-Link.com,2013-02-22 18:54:00,
2013-02-22 14:09:00,81.5,70.7,29.89,SSW,202,5.8,-999.0,70,-99.99,,,0.00,Acu-Link.com,2013-02-22 19:09:00,
2013-02-22 14:24:00,80.8,70.9,29.90,SE,135,4.7,-999.0,72,-99.99,,,0.00,Acu-Link.com,2013-02-22 19:24:00,
2013-02-22 14:39:00,80.1,70.6,29.90,ESE,112,8.3,-999.0,73,-99.99,,,0.00,Acu-Link.com,2013-02-22 19:39:00,
2013-02-22 14:54:00,80.6,70.3,29.89,SE,135,15.0,-999.0,71,-99.99,,,0.00,Acu-Link.com,2013-02-22 19:54:00,
2013-02-22 15:09:00,80.8,70.5,29.89,ESE,112,11.4,-999.0,71,-99.99,,,0.00,Acu-Link.com,2013-02-22 20:09:00,
2013-02-22 15:24:00,80.8,70.9,29.89,ESE,112,7.8,-999.0,72,-99.99,,,0.00,Acu-Link.com,2013-02-22 20:24:00,
2013-02-22 15:39:00,80.6,70.7,29.90,SE,135,7.8,-999.0,72,-99.99,,,0.00,Acu-Link.com,2013-02-22 20:39:00,
2013-02-22 15:55:00,79.3,70.7,29.89,ESE,112,7.8,-999.0,75,-99.99,,,0.00,Acu-Link.com,2013-02-22 20:55:00,
2013-02-22 16:10:00,79.0,70.4,29.89,SE,135,13.5,-999.0,75,-99.99,,,0.00,Acu-Link.com,2013-02-22 21:10:00,
2013-02-22 16:25:00,79.5,70.5,29.88,SSE,157,4.7,-999.0,74,-99.99,,,0.00,Acu-Link.com,2013-02-22 21:25:00,
2013-02-22 16:40:00,78.8,70.2,29.89,SSE,157,8.3,-999.0,75,-99.99,,,0.00,Acu-Link.com,2013-02-22 21:40:00,
2013-02-22 16:55:00,78.8,71.0,29.88,SSE,157,6.3,-999.0,77,-99.99,,,0.00,Acu-Link.com,2013-02-22 21:55:00,
2013-02-22 17:10:00,78.3,70.5,29.88,South,180,7.3,-999.0,77,-99.99,,,0.00,Acu-Link.com,2013-02-22 22:10:00,
2013-02-22 17:25:00,77.4,70.0,29.88,SE,135,6.3,-999.0,78,-99.99,,,0.00,Acu-Link.com,2013-02-22 22:25:00,
2013-02-22 17:40:00,77.9,70.1,29.88,East,90,9.9,-999.0,77,-99.99,,,0.00,Acu-Link.com,2013-02-22 22:40:00,
2013-02-22 17:56:00,77.0,69.6,29.89,ESE,112,10.4,-999.0,78,-99.99,,,0.00,Acu-Link.com,2013-02-22 22:56:00,
2013-02-22 18:11:00,76.3,70.0,29.90,SE,135,5.8,-999.0,81,-99.99,,,0.00,Acu-Link.com,2013-02-22 23:11:00,
2013-02-22 18:26:00,75.6,70.4,29.90,SSE,157,8.9,-999.0,84,-99.99,,,0.00,Acu-Link.com,2013-02-22 23:26:00,
2013-02-22 18:41:00,75.0,70.5,29.90,ESE,112,6.8,-999.0,86,-99.99,,,0.00,Acu-Link.com,2013-02-22 23:41:00,
2013-02-22 18:56:00,74.7,70.9,29.90,ESE,112,8.9,-999.0,88,-99.99,,,0.00,Acu-Link.com,2013-02-22 23:56:00,
2013-02-22 19:11:00,74.5,70.7,29.90,ESE,112,6.3,-999.0,88,-99.99,,,0.00,Acu-Link.com,2013-02-23 00:11:00,
2013-02-22 19:26:00,74.5,70.7,29.91,ESE,112,4.2,-999.0,88,-99.99,,,0.00,Acu-Link.com,2013-02-23 00:26:00,
2013-02-22 19:42:00,74.3,70.5,29.92,SE,135,6.8,-999.0,88,-99.99,,,0.00,Acu-Link.com,2013-02-23 00:42:00,
2013-02-22 19:57:00,74.3,70.8,29.91,SSE,157,4.7,-999.0,89,-99.99,,,0.00,Acu-Link.com,2013-02-23 00:57:00,
2013-02-22 20:12:00,74.3,70.8,29.92,ESE,112,4.7,-999.0,89,-99.99,,,0.00,Acu-Link.com,2013-02-23 01:12:00,
2013-02-22 20:27:00,74.3,70.8,29.91,SSE,157,6.8,-999.0,89,-99.99,,,0.00,Acu-Link.com,2013-02-23 01:27:00,
2013-02-22 20:42:00,74.1,71.0,29.91,East,90,5.3,-999.0,90,-99.99,,,0.00,Acu-Link.com,2013-02-23 01:42:00,
2013-02-22 20:57:00,74.1,71.0,29.92,South,180,9.4,-999.0,90,-99.99,,,0.00,Acu-Link.com,2013-02-23 01:57:00,
2013-02-22 21:12:00,74.1,71.0,29.92,SE,135,4.7,-999.0,90,-99.99,,,0.00,Acu-Link.com,2013-02-23 02:12:00,
2013-02-22 21:27:00,74.1,70.6,29.93,South,180,4.7,-999.0,89,-99.99,,,0.00,Acu-Link.com,2013-02-23 02:27:00,
2013-02-22 21:42:00,74.1,70.3,29.92,ESE,112,8.9,-999.0,88,-99.99,,,0.00,Acu-Link.com,2013-02-23 02:42:00,
2013-02-22 21:58:00,74.1,70.3,29.94,SE,135,4.2,-999.0,88,-99.99,,,0.00,Acu-Link.com,2013-02-23 02:58:00,
2013-02-22 22:13:00,74.1,70.3,29.93,SE,135,5.3,-999.0,88,-99.99,,,0.00,Acu-Link.com,2013-02-23 03:13:00,
2013-02-22 22:28:00,74.1,70.3,29.92,SE,135,3.7,-999.0,88,-99.99,,,0.00,Acu-Link.com,2013-02-23 03:28:00,
2013-02-22 22:43:00,74.1,70.3,29.92,ESE,112,9.9,-999.0,88,-99.99,,,0.00,Acu-Link.com,2013-02-23 03:43:00,
2013-02-22 22:58:00,74.3,70.5,29.92,SSE,157,3.2,-999.0,88,-99.99,,,0.00,Acu-Link.com,2013-02-23 03:58:00,
2013-02-22 23:13:00,74.1,71.6,29.92,South,180,7.8,-999.0,92,-99.99,,,0.00,Acu-Link.com,2013-02-23 04:13:00,
2013-02-22 23:28:00,73.4,71.2,29.91,South,180,8.3,-999.0,93,-99.99,,,0.00,Acu-Link.com,2013-02-23 04:28:00,
2013-02-22 23:43:00,73.6,71.4,29.91,SSE,157,7.8,-999.0,93,-99.99,,,0.00,Acu-Link.com,2013-02-23 04:43:00,
2013-02-22 23:59:00,73.4,70.3,29.91,ESE,112,4.7,-999.0,90,-99.99,,,0.00,Acu-Link.com,2013-02-23 04:59:00,